Regional Weather Roundup
Issued by NWS Goodland, KS

Home | Current Version | Previous Version | Text Only | Print | Product List | Glossary Off
Versions: 1 2 3 4 5 6 7 8 9 10 11 12 13 14 15 16 17 18 19 20 21 22 23 24 25 26 27 28 29 30 31 32 33 34 35 36 37 38 39 40 41 42 43 44 45 46 47 48 49 50

000
ASUS43 KGLD 302159
RWRGLD

GOODLAND FORECAST AREA HOURLY WEATHER ROUNDUP
NATIONAL WEATHER SERVICE GOODLAND KS
400 PM MDT THU OCT 30 2014

...OFFICIAL OBSERVATIONS...

CITY           SKY/WX    TMP DP  RH WIND       PRES   REMARKS
GOODLAND KS    SUNNY     65  25  22 N17G24    30.29R
HILL CITY KS   SUNNY     68  30  24 N16G25    30.22R
IMPERIAL NEB   MOSUNNY   64  30  27 N17G25    30.27S
MCCOOK NEB     SUNNY     67  29  24 N16       30.25R
AKRON CO       SUNNY     61  26  26 NW12      30.32S
BURLINGTON CO  SUNNY     64  24  21 N14       30.31R
LIMON CO       SUNNY     60  24  25 NW3       30.34R
$$

...UNOFFICIAL OBSERVATIONS...

CITY           SKY/WX    TMP DP  RH WIND       PRES   REMARKS
COLBY KS       SUNNY     66  34  30 N16G29    30.27S
NORTON KS      SUNNY     68  25  19 N20G25    30.22R
SHARON SPRINGS   N/A     65  29  26 NE9G20      N/A
TRENTON NEB      N/A     66  32  28 NW16        N/A
YUMA CO          N/A     63  27  25 N9G18       N/A
$$



USA.gov is the U.S. government's official web portal to all federal, state and local government web resources and services.